Location: Newark
(47.5347°N, 5.5339°E)
Time: 02:28:55
(UTC+00:00)

ISS - Pass Details

Date: 27 September 2019
Orbit: 411 x 421 km, 51.6° (Epoch: 21 October)

Event Time Altitude Azimuth Distance (km) Brightness Sun altitude
Rises 20:06:48 0° 289° (WNW) 2,346 1.3 -26.9°
Reaches altitude 10° 20:08:57 10° 296° (WNW) 1,483 0.0 -27.2°
Enters shadow 20:10:20 22° 307° (NW) 969 -1.2 -27.4°
